User: anonymous   Login
Location: Unspecified
(0.0000°N, 0.0000°E)
Time: 13:19:48
(UTC+00:00)
Language:

GLOBAL-2 - Orbit

View from above orbital plane
View from above orbital plane
View from above satellite
View from above satellite

Ground track
Ground track

The orbit data is extracted from the following two-line orbital elements,

1 43812U 18099BG  24260.64592359  .00007765  00000-0  59845-3 0  9991
2 43812  97.4442 311.8108 0006436 160.7670 199.3799 15.01867036315810
Epoch (UTC): 16 September 2024 15:30:07
Eccentricity: 0.0006436
inclination: 97.4442°
perigee height: 556 km
apogee height: 565 km
right ascension of ascending node: 311.8108°
argument of perigee: 160.7670°
revolutions per day: 15.01867036
mean anomaly at epoch: 199.3799°
orbit number at epoch: 31581

The dashed part of the orbit path shows where the satellite is in the earth's shadow,  

DLR